[[{"header":{"parameterUnit":"m.s-1","parameterCategory":1,"la1":30.2991,"la2":30.254,"lo1":-89.0895,"lo2":-89.0444,"dy":0.0017,"dx":0.0017,"nx":28,"ny":28,"refTime":"2024-04-09T21:00:00:Z","depth":0,"parameterNumber":2,"parameterNumberName":"U-component_of_WINDS"},"data":[0,0,0,0,0,0,0,0,0,0,0,0,0,0,0,0,0,0,0,0,0,0,0,0,0,0,0,0,0,0,0,0,0,0,0,0,0,0,0,0,0,0,0,0,0,0,0,0,0,0,0,0,0,0,0,0,0,0,-4.4775,-4.4776,0,-4.4871,-4.4872,-4.4873,-4.4914,-4.4914,-4.4914,-4.4913,-4.5009,-4.5012,-4.5015,0,0,0,0,0,0,0,0,0,0,0,0,0,-4.4625,-4.4627,-4.4775,-4.4776,-4.4777,-4.4871,-4.4872,-4.4874,-4.4914,-4.4914,-4.4914,-4.4913,-4.5009,-4.5012,-4.5015,0,0,0,0,0,0,0,0,0,0,0,0,0,-4.4702,-4.4628,-4.4774,-4.4809,-4.4813,-4.4871,-4.4872,-4.4874,-4.4914,-4.4914,-4.4914,-4.4913,-4.5007,-4.5011,-4.5015,-4.5046,0,0,-4.5028,-4.503,0,0,0,0,0,0,0,0,-4.4698,-4.4708,-4.4802,-4.4806,-4.4811,-4.488,-4.4855,-4.4932,-4.4914,-4.4875,-4.4913,-4.4913,-4.4967,-4.4974,-4.4993,-4.505,-4.5055,-4.5028,-4.5031,-4.5033,-4.5034,0,0,0,0,0,0,0,-4.4692,-4.4704,-4.4813,-4.4804,-4.4809,-4.4819,-4.483,-4.4869,-4.4921,-4.4879,-4.4882,-4.4893,-4.4969,-4.4988,-4.4995,-4.5056,-4.5028,-4.5032,-4.5034,-4.5036,-4.5147,-4.5147,0,0,0,0,0,0,-4.4682,-4.4699,-4.481,-4.4816,-4.4753,-4.4822,-4.4834,-4.4858,-4.4921,-4.493,-4.4893,-4.4895,-4.4982,-4.499,-4.4999,-4.504,-4.5032,-4.5036,-4.5039,-4.5146,-4.5147,-4.5148,0,0,0,0,0,0,-4.4678,-4.4691,-4.4806,-4.4758,-4.4774,-4.4825,-4.4852,-4.486,-4.488,-4.4932,-4.4941,-4.4904,-4.4982,-4.4993,-4.5035,-4.5044,-4.5038,-4.5042,-4.5146,-4.5147,-4.5147,-4.5122,0,0,0,0,0,0,-4.4674,-4.469,-4.4701,-4.4758,-4.4776,-4.484,-4.4852,-4.4862,-4.4887,-4.489,-4.4944,-4.4953,-4.4982,-4.5028,-4.5039,-4.5049,-4.5045,-4.5145,-4.5146,-4.5147,-4.5122,-4.5121,-4.5121,0,0,0,0,0,-4.4668,-4.4689,-4.4702,-4.4715,-4.4792,-4.484,-4.4851,-4.4885,-4.4888,-4.49,-4.4934,-4.4951,-4.5042,-4.5032,-4.5044,-4.5056,-4.5145,-4.5146,-4.5147,-4.5122,-4.5121,-4.5121,0,0,0,0,0,0,-4.463,-4.4697,-4.4712,-4.4752,-4.4791,-4.4847,-4.4864,-4.4883,-4.492,-4.4921,-4.4962,-4.4974,-4.5012,-4.5039,-4.5027,-4.5091,-4.5095,-4.5098,-4.5071,-4.5071,-4.5071,-4.5063,-4.5048,0,0,0,0,0,-4.4626,-4.4661,-4.4717,-4.4747,-4.4766,-4.4812,-4.4834,-4.4858,-4.4899,-4.4915,-4.4952,-4.499,-4.5028,-4.5051,-4.5088,-4.5127,-4.514,-4.5141,-4.5141,-4.514,-4.5142,-4.5166,-4.5168,-4.5151,-4.5151,-4.5151,0,0,-4.4618,-4.466,-4.4678,-4.4741,-4.4773,-4.4808,-4.4825,-4.486,-4.4886,-4.492,-4.4962,-4.4991,-4.5037,-4.5078,-4.5098,-4.5101,-4.515,-4.5141,-4.5141,-4.5143,-4.5168,-4.5169,-4.5171,-4.5152,-4.5152,-4.5152,0,0,-4.4622,-4.4657,-4.4686,-4.472,-4.477,-4.4801,-4.4808,-4.4863,-4.4884,-4.4928,-4.4955,-4.4986,-4.5049,-4.5082,-4.5107,-4.5128,-4.5145,-4.5139,-4.5136,-4.5159,-4.516,-4.5162,-4.517,-4.5172,-4.5141,-4.5141,-4.5141,0,-4.4606,-4.466,-4.4699,-4.4734,-4.4761,-4.4796,-4.4826,-4.4856,-4.4915,-4.4933,-4.4937,-4.5019,-4.5053,-4.5102,-4.5108,-4.5127,-4.5137,-4.5132,-4.5157,-4.5159,-4.5161,-4.5169,-4.5172,-4.514,-4.514,-4.514,-4.514,0,-4.4638,-4.4675,-4.4693,-4.4752,-4.4781,-4.4813,-4.4858,-4.4883,-4.4905,-4.4936,-4.4981,-4.5023,-4.507,-4.5084,-4.5105,-4.5138,-4.5139,-4.5149,-4.5154,-4.516,-4.5169,-4.5172,-4.5138,-4.5139,-4.5139,-4.5139,0,0,-4.4617,-4.47,-4.4705,-4.4734,-4.4793,-4.4823,-4.4858,-4.4906,-4.4927,-4.4968,-4.4998,-4.5053,-4.5064,-4.5093,-4.5118,-4.5139,-4.5154,-4.5147,-4.5149,-4.5147,-4.5194,-4.5185,-4.5188,-4.5167,-4.5168,-4.5168,-4.519,0,-4.4629,-4.4693,-4.4731,-4.4781,-4.4816,-4.4852,-4.4883,-4.4923,-4.4953,-4.4988,-4.5022,-4.506,-4.5072,-4.5089,-4.5111,-4.5147,-4.5164,-4.5146,-4.5196,-4.5197,-4.5182,-4.5192,-4.5182,-4.5201,-4.5194,-4.5194,-4.5195,0,-4.465,-4.4693,-4.4746,-4.4804,-4.4821,-4.4848,-4.4896,-4.4929,-4.4976,-4.4997,-4.5031,-4.5057,-4.5097,-4.51,-4.5155,-4.5142,-4.5166,-4.5187,-4.5188,-4.5193,-4.5195,-4.5197,-4.5208,-4.521,-4.52,-4.52,-4.5199,0,-4.463,-4.47,-4.4742,-4.4765,-4.4834,-4.4852,-4.4882,-4.4929,-4.4957,-4.4999,-4.5018,-4.5064,-4.5089,-4.5124,-4.5163,-4.5162,-4.5215,-4.5221,-4.5234,-4.5233,-4.5241,-4.524,-4.5255,-4.5258,-4.5257,-4.5257,-4.5257,0,-4.4639,-4.467,-4.4734,-4.4759,-4.4796,-4.484,-4.4875,-4.4908,-4.495,-4.4983,-4.5017,-4.5046,-4.5096,-4.5133,-4.5163,-4.5205,-4.5216,-4.5235,-4.5242,-4.5231,-4.5229,-4.5245,-4.5245,-4.5258,-4.5258,-4.5258,-4.5258,0,-4.4621,-4.4666,-4.4714,-4.4777,-4.4793,-4.4817,-4.4871,-4.4898,-4.4932,-4.4973,-4.4985,-4.5038,-4.5083,-4.5126,-4.5185,-4.5206,-4.5248,-4.5258,-4.5232,-4.5236,-4.5246,-4.5245,-4.5272,-4.5278,-4.5277,-4.5277,-4.5277,0,-4.4623,-4.4649,-4.4716,-4.4741,-4.477,-4.4809,-4.4839,-4.4884,-4.4913,-4.4971,-4.499,-4.5038,-4.5079,-4.5149,-4.5193,-4.5239,-4.5251,-4.5257,-4.5258,-4.5247,-4.5251,-4.5249,-4.5252,-4.5256,-4.5255,-4.5255,-4.5255,0,-4.4623,-4.4645,-4.4685,-4.4735,-4.4769,-4.481,-4.4852,-4.487,-4.4924,-4.4955,-4.5002,-4.5034,-4.5096,-4.5143,-4.5196,-4.5227,-4.525,-4.5255,-4.5261,-4.5249,-4.5233,-4.5242,-4.5229,-4.5254,-4.5254,-4.5254,-4.5254,-4.5254,-4.4616,-4.464,-4.4692,-4.4737,-4.4774,-4.4813,-4.4842,-4.4881,-4.4921,-4.4976,-4.5001,-4.5049,-4.5098,-4.5171,-4.5202,-4.5241,-4.5246,-4.5254,-4.5256,-4.5257,-4.5254,-4.5228,-4.5251,-4.5251,-4.5251,-4.5251,-4.5251,0,-4.4617,-4.4653,-4.4694,-4.4753,-4.4789,-4.481,-4.4858,-4.4887,-4.4929,-4.4973,-4.5014,-4.5069,-4.5116,-4.5165,-4.5215,-4.5237,-4.5249,-4.5248,-4.5246,-4.5253,-4.5247,-4.5237,-4.5238,-4.5238,-4.5238,-4.5238,-4.5238,-4.5238,-4.4621,-4.4665,-4.4694,-4.4757,-4.4793,-4.4841,-4.4867,-4.4903,-4.4939,-4.5,-4.504,-4.5072,-4.5119,-4.5173,-4.5218,-4.5231,-4.5248,-4.5244,-4.5261,-4.5253,-4.5254,-4.5254,-4.5245,-4.5248,-4.5248,-4.5264,-4.5264,-4.5265]},{"header":{"parameterUnit":"m.s-1","parameterCategory":1,"la1":30.2991,"la2":30.254,"lo1":-89.0895,"lo2":-89.0444,"dy":0.0017,"dx":0.0017,"nx":28,"ny":28,"refTime":"2024-04-09T21:00:00:Z","depth":0,"parameterNumber":3,"parameterNumberName":"V-component_of_WINDS"},"data":[0,0,0,0,0,0,0,0,0,0,0,0,0,0,0,0,0,0,0,0,0,0,0,0,0,0,0,0,0,0,0,0,0,0,0,0,0,0,0,0,0,0,0,0,0,0,0,0,0,0,0,0,0,0,0,0,0,0,10.1291,10.1293,0,10.14,10.1401,10.1402,10.1315,10.1312,10.1308,10.1305,10.1417,10.1423,10.1429,0,0,0,0,0,0,0,0,0,0,0,0,0,10.101,10.1016,10.1291,10.1293,10.1294,10.14,10.1401,10.1403,10.1316,10.1312,10.1307,10.1303,10.1415,10.1422,10.143,0,0,0,0,0,0,0,0,0,0,0,0,0,10.1127,10.1018,10.1291,10.1264,10.1262,10.1399,10.1401,10.1403,10.1317,10.1311,10.1306,10.1301,10.1412,10.1421,10.1431,10.1601,0,0,10.146,10.1465,0,0,0,0,0,0,0,0,10.112,10.1137,10.1266,10.1266,10.1264,10.1338,10.1343,10.1469,10.1318,10.1296,10.1304,10.1298,10.1395,10.1406,10.1438,10.1606,10.1611,10.1461,10.1467,10.1471,10.1474,0,0,0,0,0,0,0,10.1112,10.1132,10.1334,10.1268,10.1267,10.1246,10.1256,10.1366,10.1376,10.1298,10.1292,10.1306,10.1394,10.1429,10.144,10.1613,10.1461,10.147,10.1476,10.1479,10.1926,10.1932,0,0,0,0,0,0,10.1107,10.1126,10.1331,10.1337,10.1177,10.1256,10.1267,10.132,10.1374,10.1377,10.131,10.1301,10.1416,10.1429,10.1444,10.1647,10.1471,10.148,10.1486,10.192,10.1927,10.1934,0,0,0,0,0,0,10.1101,10.1126,10.1326,10.123,10.1254,10.1266,10.1327,10.1325,10.1361,10.1384,10.1385,10.1345,10.1412,10.143,10.1563,10.165,10.1485,10.1493,10.1913,10.1922,10.1931,10.2055,0,0,0,0,0,0,10.1093,10.1124,10.1189,10.1232,10.126,10.1444,10.1332,10.1331,10.1378,10.1367,10.1417,10.1419,10.1409,10.1549,10.1572,10.166,10.1501,10.1905,10.1917,10.1928,10.2044,10.2068,10.2088,0,0,0,0,0,10.1084,10.122,10.1193,10.1218,10.1341,10.1449,10.1464,10.1449,10.1385,10.145,10.1465,10.1418,10.1636,10.1563,10.1589,10.1681,10.1899,10.1914,10.1927,10.2034,10.2063,10.2088,0,0,0,0,0,0,10.1188,10.1226,10.1196,10.135,10.1397,10.1434,10.1516,10.1481,10.1547,10.1534,10.1513,10.1525,10.1664,10.1685,10.1603,10.1848,10.1758,10.1777,10.183,10.1858,10.188,10.1873,10.1509,0,0,0,0,0,10.1229,10.1313,10.1341,10.1475,10.15,10.1504,10.1551,10.1535,10.1583,10.1602,10.1626,10.1674,10.1754,10.1807,10.1881,10.2045,10.2055,10.2121,10.2144,10.2162,10.218,10.2269,10.2298,10.1979,10.1979,10.1978,0,0,10.1315,10.1346,10.14,10.1497,10.1531,10.162,10.1522,10.1619,10.1684,10.1617,10.1744,10.1763,10.1815,10.1964,10.2031,10.1987,10.227,10.2179,10.2194,10.2202,10.2286,10.2316,10.2343,10.1988,10.1986,10.1985,0,0,10.1516,10.1548,10.1663,10.1699,10.1752,10.1753,10.1781,10.1824,10.1834,10.196,10.1911,10.1988,10.2125,10.2165,10.2203,10.2418,10.2378,10.2443,10.256,10.2647,10.2673,10.2695,10.2773,10.2801,10.246,10.246,10.246,0,10.1617,10.1747,10.1727,10.1828,10.1872,10.1814,10.193,10.1966,10.2041,10.2073,10.2021,10.2192,10.2223,10.2381,10.2433,10.2466,10.2497,10.2438,10.267,10.2693,10.2713,10.2787,10.2816,10.2468,10.2467,10.2466,10.2465,0,10.1868,10.196,10.2046,10.2119,10.2173,10.2281,10.2277,10.2334,10.2313,10.232,10.2449,10.2484,10.2565,10.26,10.2581,10.2756,10.2726,10.2673,10.2582,10.2752,10.2821,10.2849,10.2479,10.2476,10.2474,10.2472,0,0,10.2141,10.22,10.2233,10.2265,10.2318,10.2389,10.2494,10.2572,10.2622,10.2674,10.2763,10.288,10.283,10.2874,10.2858,10.2934,10.3103,10.2871,10.2872,10.2914,10.3299,10.334,10.3373,10.3076,10.3081,10.3085,10.3295,0,10.2346,10.253,10.2513,10.2688,10.2772,10.2717,10.2809,10.2851,10.2861,10.2933,10.2943,10.3027,10.2955,10.2981,10.3053,10.3067,10.3181,10.3052,10.3159,10.3163,10.315,10.3409,10.3453,10.365,10.3322,10.3326,10.333,0,10.2611,10.2672,10.2855,10.2895,10.293,10.3013,10.3083,10.3153,10.32,10.3201,10.3249,10.322,10.3326,10.3231,10.3377,10.329,10.3333,10.3346,10.3353,10.3364,10.3258,10.3429,10.3712,10.3742,10.3372,10.3368,10.3365,0,10.2793,10.2922,10.3047,10.3077,10.3126,10.3186,10.3209,10.3251,10.3299,10.336,10.3391,10.3463,10.3504,10.3561,10.3552,10.3483,10.3702,10.3605,10.3707,10.3707,10.3757,10.3755,10.4053,10.3782,10.3781,10.3781,10.378,0,10.3025,10.3139,10.313,10.3208,10.3334,10.3313,10.3439,10.3455,10.3492,10.3573,10.3529,10.3605,10.3588,10.3663,10.3657,10.378,10.3798,10.3803,10.38,10.3808,10.3808,10.3837,10.3824,10.3788,10.3787,10.3785,10.3784,0,10.3251,10.325,10.3383,10.3419,10.343,10.3522,10.3552,10.3626,10.363,10.3732,10.3755,10.3762,10.3849,10.3845,10.3944,10.3939,10.4091,10.4071,10.4075,10.4072,10.4174,10.4165,10.4503,10.4547,10.4246,10.4249,10.4251,0,10.3401,10.3487,10.3531,10.3582,10.3609,10.369,10.3739,10.3721,10.3773,10.3833,10.3899,10.3982,10.4047,10.4188,10.4203,10.4278,10.4261,10.4374,10.4272,10.4277,10.4265,10.426,10.4269,10.4395,10.4398,10.4401,10.4403,0,10.3667,10.3661,10.3732,10.3803,10.3862,10.3917,10.3968,10.4011,10.3999,10.406,10.4148,10.4198,10.4298,10.4381,10.4452,10.4476,10.4439,10.4435,10.4462,10.4473,10.4472,10.4475,10.4132,10.4428,10.4425,10.4423,10.4422,10.4421,10.386,10.3934,10.3977,10.4058,10.4093,10.4141,10.4212,10.4225,10.4298,10.4378,10.4362,10.4461,10.4505,10.4597,10.4628,10.4705,10.4665,10.4705,10.4715,10.4726,10.4738,10.4458,10.4717,10.4717,10.4716,10.4716,10.4715,0,10.4125,10.4149,10.4223,10.4295,10.4359,10.4315,10.4369,10.4425,10.4512,10.4556,10.4621,10.4722,10.4801,10.4821,10.4898,10.4956,10.4941,10.4977,10.4974,10.498,10.4769,10.4738,10.4988,10.4988,10.4988,10.4988,10.4988,10.4988,10.4271,10.4394,10.4394,10.4535,10.4558,10.4654,10.4688,10.4732,10.4767,10.4881,10.4947,10.4959,10.4994,10.5072,10.5143,10.5147,10.5178,10.5222,10.5219,10.5022,10.4995,10.4969,10.494,10.5228,10.5229,10.5424,10.5426,10.5427]}]]